DK8PN Weather Reports


time (UTC)temp
F
wind
direction
speed
knots
gust
knots
rain 1hr
in
rain 24hr
in
rain mn
in
humidity
%
barometer
mb
20260507080003 48 265 0.0 7.8 0.01 0.31 0.16 95 1012.0
20260507074600 48 281 0.0 5.2 0.00 0.31 0.15 95 1011.9
20260507073108 48 271 0.9 7.0 0.01 0.31 0.15 95 1011.7
20260507071556 48 279 0.0 6.1 0.02 0.31 0.15 95 1011.5
20260507070106 47 294 0.0 6.1 0.02 0.31 0.15 95 1011.3
20260507064554 47 296 2.6 8.7 0.02 0.31 0.15 95 1011.2
20260507063054 48 291 1.7 8.7 0.02 0.30 0.14 95 1011.0
20260507061546 48 314 0.0 7.8 0.02 0.28 0.13 95 1010.9
20260507060048 48 306 1.7 9.6 0.03 0.28 0.13 95 1010.7
20260507054542 48 259 2.6 8.7 0.04 0.28 0.13 95 1010.5
20260507053039 48 264 1.7 7.0 0.04 0.28 0.12 95 1010.4
20260507051535 49 235 3.5 9.6 0.04 0.27 0.11 95 1010.1
20260507050057 49 254 0.0 5.2 0.02 0.25 0.09 95 1009.9
20260507044536 49 246 0.0 4.3 0.02 0.24 0.09 94 1009.8
20260507043027 49 253 0.0 3.5 0.02 0.24 0.08 94 1009.6
20260507041526 49 246 0.0 3.5 0.02 0.23 0.07 94 1009.4
20260507040024 49 261 0.0 7.0 0.02 0.23 0.07 94 1009.2
20260507034522 49 240 0.9 8.7 0.02 0.22 0.06 94 1009.1
20260507033026 49 241 0.9 12.2 0.02 0.21 0.06 93 1008.8
20260507031515 50 247 0.0 7.8 0.01 0.20 0.05 94 1008.7
20260507030012 49 222 0.0 7.0 0.02 0.20 0.05 94 1008.6
20260507024515 49 240 0.0 6.1 0.01 0.20 0.04 94 1008.5
20260507023009 49 198 0.0 1.7 0.02 0.20 0.04 94 1008.4
20260507021517 49 211 0.0 0.9 0.03 0.20 0.04 94 1008.4
20260507020005 50 229 0.0 0.0 0.02 0.19 0.03 94 1008.2
20260507014504 50 229 0.0 0.0 0.02 0.19 0.03 94 1008.2
20260507013007 50 229 0.0 0.0 0.01 0.17 0.02 93 1008.1
20260507011504 50 229 0.0 0.0 0.00 0.17 0.01 93 1008.1
20260507010002 50 229 0.0 0.0 0.00 0.17 0.01 92 1008.2
20260507004559 50 229 0.0 0.0 0.00 0.17 0.01 92 1008.1
20260507003059 50 229 0.0 0.0 0.00 0.17 0.01 92 1008.1
20260507001606 50 229 0.0 0.0 0.00 0.17 0.01 91 1008.0
20260507000058 50 229 0.0 2.6 0.00 0.17 0.01 91 1008.0
20260506234621 50 254 0.0 0.0 0.01 0.17 0.01 91 1008.0
20260506233054 50 229 0.0 1.7 0.01 0.17 0.01 91 1008.0
20260506231555 50 254 0.9 6.1 0.01 0.17 0.01 91 1008.1
20260506230051 51 237 1.7 7.0 0.01 0.17 0.01 92 1008.1
20260506224549 51 229 0.0 5.2 0.00 0.17 0.00 93 1008.0
20260506223055 51 207 0.0 0.9 0.00 0.17 0.00 93 1007.9
20260506221545 51 259 0.0 0.0 0.02 0.17 0.00 94 1007.8
20260506220043 51 220 0.0 0.0 0.02 0.17 0.00 94 1007.7
20260506214543 51 220 0.0 0.0 0.02 0.17 0.17 94 1007.6
20260506213040 51 220 0.0 0.0 0.03 0.17 0.17 93 1007.5
20260506211539 52 220 0.0 0.0 0.02 0.15 0.15 93 1007.3
20260506210040 51 220 0.0 0.0 0.04 0.14 0.14 93 1007.3
20260506204549 51 220 0.0 2.6 0.06 0.14 0.14 93 1007.2
20260506203037 51 195 0.0 3.5 0.06 0.13 0.13 93 1007.2
20260506201538 52 199 0.0 0.0 0.06 0.13 0.13 93 1007.0
20260506200035 52 192 0.0 1.7 0.05 0.10 0.10 93 1007.0
20260506194534 52 194 0.0 0.9 0.05 0.09 0.09 93 1006.9
20260506193031 53 198 0.0 1.7 0.05 0.08 0.08 93 1006.6
20260506191528 53 195 0.0 0.0 0.04 0.06 0.06 92 1006.3
20260506190026 53 195 0.0 0.0 0.04 0.06 0.06 92 1006.1
20260506184524 54 216 0.0 0.0 0.02 0.06 0.04 92 1005.8
20260506183023 54 223 0.0 0.0 0.02 0.06 0.03 92 1005.6
20260506181527 54 223 0.0 0.0 0.01 0.05 0.02 92 1005.5
20260506180023 54 246 0.0 0.0 0.01 0.04 0.02 91 1005.5
20260506174521 54 254 0.0 0.0 0.01 0.06 0.02 91 1005.2
20260506173022 54 254 0.0 0.0 0.01 0.06 0.02 91 1005.3
20260506171534 54 254 0.0 0.0 0.01 0.06 0.02 90 1005.1
20260506170022 54 254 0.0 4.3 0.00 0.05 0.01 89 1005.1
20260506164521 55 273 0.0 3.5 0.00 0.05 0.01 88 1005.1
20260506163019 55 265 0.0 5.2 0.00 0.05 0.01 88 1005.1
20260506161522 55 250 0.9 7.0 0.00 0.05 0.01 87 1005.1
20260506160031 56 246 0.0 2.6 0.00 0.05 0.01 86 1004.9
20260506154517 55 292 0.0 0.0 0.00 0.06 0.01 86 1004.7
20260506153016 55 287 0.0 0.0 0.00 0.06 0.01 87 1004.8
20260506151527 56 269 0.0 7.0 0.00 0.06 0.01 88 1004.7
20260506150026 56 259 0.0 6.1 0.00 0.06 0.01 87 1004.6
20260506144514 56 291 1.7 20.0 0.00 0.11 0.01 84 1004.4
20260506143034 57 292 1.7 23.5 0.00 0.11 0.01 80 1004.2
20260506141513 62 267 2.6 9.6 0.00 0.11 0.01 72 1003.8
20260506140014 63 277 0.9 11.3 0.00 0.11 0.01 70 1003.6
20260506134511 63 273 1.7 8.7 0.00 0.19 0.01 68 1003.5
20260506133012 64 252 0.9 6.1 0.00 0.19 0.01 61 1003.4
20260506131515 64 246 0.0 0.0 0.00 0.19 0.01 62 1003.3
20260506130010 65 237 0.0 0.0 0.00 0.19 0.01 59 1003.2
20260506124507 64 173 0.0 0.0 0.00 0.19 0.01 60 1003.1
20260506123006 67 207 0.0 0.0 0.00 0.19 0.01 58 1003.2
20260506121505 65 208 0.0 0.0 0.00 0.19 0.01 61 1003.4
20260506114558 64 165 0.0 2.6 0.00 0.19 0.01 67 1003.5
20260506113106 63 152 0.0 0.9 0.00 0.19 0.01 69 1003.6
20260506111555 63 132 0.0 0.0 0.00 0.19 0.01 67 1003.6
20260506104613 63 275 0.0 3.5 0.00 0.19 0.01 67 1003.8
20260506103053 63 317 0.0 4.3 0.00 0.19 0.01 70 1004.0
20260506101559 64 315 2.6 9.6 0.00 0.19 0.01 67 1004.0
20260506100049 64 85 0.0 3.5 0.00 0.19 0.01 70 1004.0
20260506094519 64 152 0.0 1.7 0.00 0.19 0.01 70 1004.2
20260506093018 64 133 0.0 7.8 0.00 0.19 0.01 67 1004.2
20260506091521 62 98 0.0 3.5 0.00 0.19 0.01 71 1004.1
20260506090016 62 360 0.0 1.7 0.00 0.19 0.01 71 1004.1
20260506084519 63 281 0.0 7.0 0.00 0.19 0.01 66 1004.3
20260506083013 63 317 0.0 0.0 0.00 0.19 0.01 74 1004.3
20260506081511 61 302 0.0 6.1 0.00 0.19 0.01 73 1004.3